Location: Ch�teau-Arnoux
(44.0814°N, 6.0027°E)
Time: 11:01:41
(UTC+00:00)

Cosmos 1869 - Pass Details

Date: 15 November 2019
Orbit: 529 x 554 km, 82.5° (Epoch: 15 December)

Event Time Altitude Azimuth Distance (km) Brightness Sun altitude
Exits shadow 04:28:34 60° 350° (N) 611 3.4 -21.9°
Maximum altitude 04:29:14 89° 266° (W) 537 3.1 -21.8°
Drops below altitude 10° 04:33:08 10° 173° (S) 1,776 6.0 -21.1°
Sets 04:35:16 0° 174° (S) 2,664 7.0 -20.7°
